Location: Unspecified
(0.0000°N, 0.0000°E)
Time: 01:04:26
(UTC+00:00)

Traac - Pass Details

Date: 24 December 2025
Orbit: 951 x 1102 km, 32.4° (Epoch: 19 January)

Event Time Altitude Azimuth Distance (km) Brightness Sun altitude
Exits shadow 04:52:52 - 251° (WSW) 2,908 10.1 -15.3°
Reaches altitude 10° 04:53:08 10° 249° (WSW) 2,853 10.0 -15.2°
Maximum altitude 04:57:33 18° 209° (SSW) 2,373 10.0 -14.2°
Drops below altitude 10° 05:02:04 10° 169° (S) 2,917 11.0 -13.2°
Sets 05:05:56 0° 151° (SSE) 3,893 12.1 -12.3°
